Theta_e
325 327 318 318 319 316 316 316 316 316 316 314 313 312 312 312 312 312 313 315 318 320 325 328 329 329 330 330 331 332 331 332 336 339 344 344 342 343 345 345 344 349 345
327 323 319 319 320 318 317 317 317 318 318 317 315 315 315 315 314 315 317 319 320 325 329 329 329 329 329 330 331 332 333 333 333 335 337 343 343 343 344 345 344 348 345
326 319 319 319 321 320 318 318 318 319 319 319 319 319 318 318 323 322 324 324 322 328 333 333 332 331 330 329 330 331 332 333 333 330 333 342 345 343 342 344 344 344 344
327 317 320 317 321 322 320 319 319 320 321 321 321 323 326 325 328 330 332 332 333 333 332 335 335 334 332 331 330 331 332 332 333 333 331 337 343 343 343 343 344 343 343
327 324 318 317 320 323 321 320 320 321 322 322 324 326 329 327 324 327 333 334 333 333 333 335 335 335 335 333 331 330 330 331 333 331 332 334 340 342 343 344 344 342 343
327 330 327 319 319 323 322 321 321 321 323 324 326 330 332 332 333 334 336 336 335 334 334 335 333 333 335 335 334 331 331 331 331 330 333 332 333 339 339 344 344 344 343
328 329 331 320 320 323 322 322 322 323 324 326 329 334 336 335 336 337 336 335 335 335 334 333 332 332 332 334 335 334 332 332 331 332 333 332 332 332 337 341 344 342 343
332 327 333 327 321 323 323 323 323 324 326 328 328 332 335 336 336 336 335 336 335 335 334 334 332 331 331 331 333 334 334 334 333 333 333 332 331 327 334 338 343 342 342
333 331 333 338 325 324 323 323 324 326 326 326 326 331 333 333 332 331 330 330 331 332 333 333 332 330 331 332 333 331 333 334 332 334 332 331 330 324 334 339 340 342 341
336 336 337 338 340 339 339 326 326 327 326 324 329 331 328 326 324 325 325 326 325 329 330 329 329 330 331 331 331 331 333 333 331 333 333 330 328 325 332 339 340 342 340
335 337 337 338 341 340 340 340 330 330 326 326 328 326 326 328 329 327 326 323 325 327 328 329 329 330 330 330 331 331 331 330 331 332 331 332 327 327 331 338 340 342 341
335 336 336 335 340 339 340 341 340 339 335 334 333 330 330 331 328 327 325 323 323 327 329 330 331 330 332 328 328 331 330 330 331 330 328 329 328 328 333 338 340 341 342
334 336 336 337 335 338 340 340 339 336 334 334 326 325 327 327 328 327 327 327 326 325 326 327 327 327 329 330 330 328 328 331 330 329 327 324 325 327 332 338 339 341 341
333 335 337 337 334 334 339 336 335 333 330 329 328 326 327 329 329 327 326 326 325 325 326 327 327 327 328 330 330 329 328 329 329 330 327 321 327 326 329 337 339 340 341
332 333 337 335 333 335 334 334 330 328 327 326 326 326 327 329 329 328 327 327 327 325 327 328 327 327 327 329 329 329 329 329 330 329 325 322 326 326 326 336 338 340 342
329 330 333 334 335 336 332 328 326 324 323 325 326 327 326 328 328 328 327 327 327 326 326 327 326 326 326 328 328 329 329 329 329 327 323 325 326 325 328 332 336 338 341
326 326 329 333 336 334 330 327 324 322 324 326 327 327 327 327 328 328 329 328 327 325 323 323 326 326 326 327 328 328 329 329 326 326 325 328 329 326 331 332 332 335 340
325 324 325 331 333 332 329 325 322 324 326 327 328 328 328 328 328 329 329 329 328 325 323 325 325 325 325 326 327 328 328 327 327 325 327 327 330 331 332 331 330 332 337
323 323 323 327 330 329 324 322 322 325 327 328 328 329 329 329 329 328 329 329 327 326 325 325 325 325 325 326 327 327 327 326 327 326 328 330 332 333 334 333 331 336 336
323 320 321 326 328 324 324 322 325 326 327 328 328 329 330 330 329 328 328 327 326 326 325 325 325 325 325 326 326 326 326 326 326 327 327 330 331 333 335 335 336 336 335
324 325 327 328 326 325 326 327 329 330 330 330 328 328 330 330 329 328 327 326 323 324 326 325 325 324 324 325 326 326 327 328 327 328 326 330 331 330 334 335 336 337 335
325 327 328 328 325 326 327 328 329 330 330 330 328 329 330 330 329 327 326 325 322 325 326 325 324 324 324 326 326 326 328 327 329 330 329 329 330 334 334 335 337 338 337
325 327 328 328 326 326 326 327 327 328 329 330 330 330 329 328 327 327 326 326 325 325 325 325 324 324 325 325 325 327 328 326 328 330 331 330 332 334 333 338 335 336 336
326 327 328 328 326 326 327 328 330 332 332 330 330 329 328 325 327 327 327 326 326 326 325 324 324 325 325 325 326 324 325 329 328 332 330 331 332 334 333 333 334 334 333
326 327 328 329 328 328 327 329 330 332 330 329 329 329 328 327 327 326 326 326 326 325 326 325 324 325 325 326 326 326 329 329 330 332 332 333 331 331 332 333 334 332 331
327 328 328 329 330 328 329 328 331 331 330 329 329 329 328 328 326 327 326 326 326 326 326 325 325 326 327 325 326 326 328 329 332 332 332 332 331 332 332 332 331 330 330
Wind_Speed
19 27 33 29 24 20 17 14 12 10 9 7 6 6 6 5 5 5 5 4 3 3 2 3 3 4 5 5 4 3 5 5 5 4 5 5 8 9 10 9 11 12 14
28 32 34 30 26 22 20 17 15 13 11 9 8 7 6 6 7 7 6 6 5 4 4 4 4 5 6 7 6 4 3 4 6 5 4 5 8 12 12 12 13 15 17
32 34 34 32 28 25 23 19 17 15 13 12 11 9 9 9 8 9 8 8 7 7 6 6 6 6 6 8 8 6 5 4 5 7 5 4 6 12 15 13 15 17 18
32 32 35 35 30 27 24 22 19 17 15 15 14 13 12 11 12 12 12 11 10 10 9 9 7 8 8 8 10 8 7 6 5 6 7 6 6 10 15 17 17 19 20
32 30 33 35 33 29 26 24 21 19 18 17 16 16 15 15 15 15 14 14 13 12 12 13 10 11 10 9 11 10 10 9 7 6 8 7 7 10 13 15 17 19 20
31 28 30 33 34 30 27 25 22 20 19 18 17 17 17 17 18 17 17 16 16 15 14 15 13 14 13 11 12 14 10 10 9 8 7 8 9 11 13 15 15 17 18
29 31 27 34 35 32 28 26 24 22 19 17 16 17 17 18 18 17 18 17 17 17 17 17 15 16 17 15 14 13 13 12 10 10 9 9 10 11 12 14 14 13 15
28 32 27 32 35 32 28 25 24 21 18 16 15 15 16 17 15 16 16 17 17 17 17 17 17 18 18 17 16 14 12 12 11 11 10 10 12 12 12 14 14 13 17
27 29 28 26 33 32 29 26 23 21 17 15 14 13 15 16 14 14 15 16 16 17 17 17 18 20 21 16 16 16 12 12 12 12 12 11 12 12 12 13 14 14 19
21 25 27 27 26 25 23 26 24 20 17 16 14 14 14 12 12 13 14 15 16 15 17 20 20 20 21 20 18 17 14 12 13 12 12 12 13 13 13 13 13 16 17
20 23 25 26 25 23 22 21 23 20 18 17 16 13 11 9 10 10 13 14 12 12 12 14 17 18 19 19 18 17 15 15 14 14 12 13 14 14 14 14 15 16 18
26 27 26 28 24 23 20 19 18 16 15 14 13 12 10 11 11 12 13 14 13 12 13 14 15 15 16 16 16 18 17 16 16 13 13 15 14 15 14 14 16 16 19
28 25 26 26 26 23 19 18 16 16 14 14 15 15 13 14 12 13 13 11 10 12 12 11 12 12 11 14 13 15 15 16 14 12 13 14 15 15 14 13 16 16 19
29 29 26 25 26 27 21 21 18 16 16 13 13 16 15 14 15 15 13 12 11 11 10 9 9 9 10 12 13 14 16 16 13 11 12 14 14 15 14 13 16 15 21
28 26 25 29 31 31 27 20 20 18 15 13 13 16 17 15 15 15 14 13 11 10 10 10 9 8 8 10 12 13 15 16 14 12 12 15 15 15 14 13 14 15 20
28 26 29 31 30 30 27 25 22 18 16 14 15 16 17 16 15 14 14 13 13 12 10 10 8 7 8 9 11 12 14 14 12 12 12 12 14 15 14 13 12 14 18
28 23 29 30 33 32 28 24 20 16 15 14 16 17 17 18 18 16 15 14 16 16 12 12 9 7 8 9 11 11 11 10 10 10 11 11 11 13 13 11 11 13 17
23 25 30 26 30 30 27 23 18 16 15 15 16 17 18 19 18 16 15 13 12 14 12 9 9 8 9 9 11 11 11 9 9 10 10 11 10 9 10 9 10 13 18
23 24 28 28 30 30 26 20 16 15 14 15 15 15 16 16 16 16 13 11 9 10 9 10 9 10 10 10 10 10 9 9 9 9 9 10 9 8 7 6 5 9 9
22 30 34 31 31 29 22 17 14 13 14 14 14 13 12 11 12 12 12 12 10 10 10 9 10 10 10 10 9 9 9 9 9 9 8 8 7 7 6 2 3 7 10
22 28 30 30 29 26 18 13 9 9 10 11 10 9 8 8 9 10 11 10 11 11 10 9 9 10 11 8 8 7 5 6 6 6 7 7 6 7 4 2 5 7 9
23 24 29 30 30 24 17 12 7 7 8 7 7 6 5 5 6 8 11 9 11 9 9 9 10 11 10 9 7 9 4 5 4 4 3 4 4 4 3 3 5 9 15
20 25 28 27 27 22 16 13 9 7 5 4 3 2 3 5 5 7 9 8 7 8 8 9 11 11 11 10 9 4 4 4 7 3 3 3 3 2 3 9 10 17 27
17 23 25 24 23 20 17 11 8 6 4 2 1 1 1 2 2 4 7 7 7 6 7 7 10 10 10 10 8 8 3 6 4 3 3 4 4 3 7 12 20 29 28
22 23 21 21 20 18 15 10 8 5 3 2 1 2 2 2 3 3 5 6 6 6 6 8 10 10 10 9 11 8 4 3 5 4 4 6 5 6 11 19 25 30 32
23 22 20 20 17 16 14 11 7 4 3 2 2 2 3 3 4 4 5 5 5 6 7 9 10 10 8 7 9 10 5 2 3 3 4 4 4 7 14 23 28 26 29
Wind_Direction
193 177 180 183 188 188 188 186 188 193 200 206 211 212 210 220 230 226 231 246 265 281 273 248 257 260 260 261 255 262 247 253 241 239 230 222 220 219 210 206 200 174 178
177 182 186 189 191 193 196 196 201 205 208 217 222 232 236 236 241 251 252 254 266 274 278 276 261 249 252 259 251 245 247 252 255 254 248 250 225 219 217 211 205 194 183
177 181 188 194 196 197 200 202 207 211 214 219 224 227 238 246 246 254 259 265 273 277 277 280 273 261 250 255 254 247 248 248 259 260 263 262 249 224 224 223 209 200 191
184 185 189 198 200 201 204 205 210 214 219 223 227 227 231 244 247 247 247 249 256 270 274 269 262 263 256 248 252 244 244 246 253 260 262 260 257 236 223 229 219 208 202
184 189 195 201 201 203 206 208 212 216 221 227 229 231 231 243 251 248 243 248 253 254 261 262 259 261 253 248 250 248 243 248 255 248 247 255 260 245 225 226 230 219 206
185 192 199 202 203 206 208 212 215 218 222 229 233 235 235 240 246 247 247 249 254 257 259 261 267 271 258 245 242 240 239 244 246 242 246 254 254 252 234 228 228 223 199
190 195 199 205 206 208 211 214 217 221 224 229 234 233 236 246 250 253 253 255 257 259 256 258 264 266 269 267 246 243 241 241 245 241 245 249 249 254 246 236 232 224 206
196 199 202 207 209 211 213 215 219 223 226 231 238 240 243 250 252 256 260 264 265 259 258 260 258 262 262 269 264 245 241 234 240 238 245 248 247 251 249 241 230 219 207
197 200 202 201 208 214 216 215 219 222 226 231 237 242 243 249 253 259 264 266 266 265 265 261 257 257 261 263 260 247 242 234 234 234 241 248 252 247 253 251 235 222 204
202 201 201 200 202 205 212 218 218 218 223 230 235 239 243 245 258 274 274 275 268 266 262 261 260 259 260 258 257 248 237 238 234 239 241 242 251 250 256 253 241 231 211
211 206 201 200 200 202 207 212 216 218 223 229 231 235 235 244 259 264 271 265 270 268 265 260 258 259 257 256 250 242 234 233 233 235 242 248 252 253 255 257 246 233 220
209 209 206 204 201 203 204 203 205 210 214 217 222 227 233 247 256 263 269 266 269 265 268 265 264 272 256 246 241 236 230 228 228 236 242 247 253 257 258 261 252 240 221
218 209 206 206 206 203 203 200 203 209 213 222 234 237 243 252 254 257 262 265 264 266 262 266 270 272 267 241 236 230 229 225 229 238 243 249 254 257 258 262 250 241 224
215 216 205 202 204 207 203 203 207 212 219 230 236 243 246 253 252 251 257 258 262 259 258 261 266 268 263 245 236 230 224 227 231 243 250 254 257 255 254 260 251 245 226
225 213 206 202 203 205 205 201 209 217 226 236 241 245 247 247 247 254 253 252 255 255 255 259 257 263 259 245 232 227 221 223 229 247 249 253 257 259 250 255 257 246 222
223 213 209 205 202 200 201 205 212 220 234 235 242 247 248 245 249 252 250 248 251 246 250 253 254 261 256 247 233 218 218 222 233 246 249 259 264 258 250 251 259 250 223
222 208 210 199 199 199 201 204 209 222 226 237 245 249 249 250 253 248 247 246 254 244 247 240 248 251 250 242 231 224 222 225 237 247 246 257 268 252 249 250 257 252 229
214 199 201 196 192 195 197 198 208 213 227 243 253 257 258 254 250 243 243 245 242 239 245 241 233 243 243 236 229 218 214 220 239 241 246 258 252 240 252 253 263 262 236
206 192 194 191 187 186 186 196 203 216 234 249 260 263 261 253 243 236 239 241 227 236 240 239 232 235 235 228 225 211 212 227 240 239 251 248 242 233 239 270 260 237 226
186 197 191 183 178 174 178 187 200 223 243 254 259 265 260 247 233 234 239 238 229 224 226 224 230 226 231 224 212 208 215 228 234 233 244 231 239 237 241 258 227 225 208
180 179 172 164 169 168 167 171 198 225 244 242 256 266 248 235 229 231 233 227 224 219 225 224 230 227 220 205 188 185 192 220 211 224 226 215 232 239 253 241 210 211 204
175 172 162 163 167 170 172 175 180 208 230 238 261 268 238 235 233 231 229 220 220 218 215 220 218 219 216 198 189 164 163 160 168 182 203 218 236 237 239 181 182 184 169
171 165 158 159 167 169 169 175 190 216 240 251 248 248 242 242 243 231 212 203 205 209 225 220 215 207 197 201 196 170 163 186 166 168 141 158 201 188 150 143 151 158 156
164 156 154 159 162 167 171 172 182 206 229 222 225 246 211 188 185 211 201 200 208 215 215 213 206 203 209 194 195 204 186 140 179 163 143 174 189 162 152 145 151 153 151
157 154 155 154 159 166 172 170 181 199 208 192 175 171 161 150 163 180 185 195 202 204 208 202 199 209 212 202 201 186 187 158 165 142 162 176 111 143 151 152 153 151 148
153 153 152 154 160 162 166 175 184 195 174 168 192 201 193 186 177 184 156 162 184 203 209 200 201 208 218 221 211 208 192 153 172 175 142 140 121 124 154 158 150 147 148